Weather History for Silver City, NM

Change the Weather History Date:

Thursday, December 26, 2013

  Actual Average (KDMN) Record (KDMN)
Temperature  
Mean Temperature 32 °F 40 °F  
Max Temperature 48 °F 55 °F 71 °F (1955)
Min Temperature 17 °F 25 °F 8 °F (1953)
Degree Days  
Heating Degree Days 32    
Moisture  
Dew Point 19 °F    
Average Humidity 63    
Maximum Humidity 93    
Minimum Humidity 30    
Precipitation  
Precipitation 0.00 in 0.03 in 0.50 in (1948)
Month to date precipitation 0.72  
Year to date precipitation 11.38  
Sea Level Pressure  
Sea Level Pressure 30.33 in    
Wind  
Wind Speed 4 mph (North)    
Max Wind Speed 10 mph    
Max Gust Speed -    
Visibility 10 miles    
Events Thunderstorm    
T = Trace of Precipitation, MM = Missing Value Source: NWS Daily Summary

Daily Weather History Graph

Daily Weather History Graph

Search for Another Location

Airport:

Trip Planner

Search our weather history database for the weather conditions in past years. The results will help you decide how hot, cold, wet, or windy it might be!

Date:

Astronomy

Dec. 26, 2013 Rise Set
Actual Time 7:13 AM MST 5:13 PM MST
Civil Twilight 6:45 AM MST 5:41 PM MST
Nautical Twilight 6:15 AM MST 6:11 PM MST
Astronomical Twilight 5:44 AM MST 6:41 PM MST
Moon 12:58 AM MST (12/26) 12:38 PM MST (12/26)
Length of Visible Light 10h 55m
Length of Day
10h 00m
Last Quarter, 38% of the Moon is Illuminated
Dec 26
Last Quarter
Jan 1
New
Jan 7
First Quarter
Jan 15
Full
Jan 23
Last Quarter

Hourly Weather History & Observations

Time (MST) Temp. Windchill Dew Point Humidity Pressure Visibility Wind Dir Wind Speed Gust Speed Precip Events Conditions
12:15 AM 23.0 °F 18.4 °F 17.6 °F 80% 30.39 in 10.0 mi North 3.5 mph - N/A   Clear
12:35 AM 24.8 °F 20.5 °F 17.6 °F 74% 30.39 in 10.0 mi WNW 3.5 mph - N/A   Clear
12:55 AM 23.0 °F - 17.6 °F 80% 30.39 in 10.0 mi Calm Calm - N/A   Clear
1:15 AM 26.6 °F 22.6 °F 17.6 °F 69% 30.39 in 10.0 mi ENE 3.5 mph - N/A   Clear
1:35 AM 28.4 °F - 17.6 °F 64% 30.38 in 10.0 mi Calm Calm - N/A Thunderstorm Clear
1:55 AM 26.6 °F - 17.6 °F 69% 30.38 in 10.0 mi Calm Calm - N/A   Clear
2:15 AM 23.0 °F 18.4 °F 17.6 °F 80% 30.38 in 10.0 mi NNE 3.5 mph - N/A   Clear
2:35 AM 24.8 °F 20.5 °F 17.6 °F 74% 30.38 in 10.0 mi NE 3.5 mph - N/A   Clear
2:55 AM 21.2 °F - 17.6 °F 86% 30.37 in 10.0 mi Calm Calm - N/A   Clear
3:15 AM 23.0 °F 17.0 °F 19.4 °F 86% 30.37 in 10.0 mi NNE 4.6 mph - N/A   Clear
3:35 AM 23.0 °F 15.8 °F 19.4 °F 86% 30.37 in 10.0 mi WNW 5.8 mph - N/A   Clear
3:55 AM 24.8 °F 17.9 °F 19.4 °F 80% 30.37 in 10.0 mi NW 5.8 mph - N/A   Clear
4:15 AM 23.0 °F 15.8 °F 19.4 °F 86% 30.36 in 10.0 mi NW 5.8 mph - N/A   Clear
4:35 AM 23.0 °F 14.7 °F 17.6 °F 80% 30.36 in 10.0 mi NW 6.9 mph - N/A   Clear
4:55 AM 23.0 °F 14.7 °F 17.6 °F 80% 30.36 in 10.0 mi NW 6.9 mph - N/A   Clear
5:15 AM 21.2 °F 13.6 °F 17.6 °F 86% 30.36 in 10.0 mi NNW 5.8 mph - N/A   Clear
5:35 AM 21.2 °F 13.6 °F 17.6 °F 86% 30.36 in 10.0 mi NNW 5.8 mph - N/A   Clear
5:55 AM 19.4 °F 11.5 °F 17.6 °F 93% 30.37 in 10.0 mi NNW 5.8 mph - N/A   Clear
6:15 AM 19.4 °F 11.5 °F 17.6 °F 93% 30.37 in 10.0 mi North 5.8 mph - N/A   Clear
6:35 AM 17.6 °F 9.3 °F 15.8 °F 93% 30.37 in 10.0 mi NNE 5.8 mph - N/A   Clear
6:55 AM 19.4 °F 8.6 °F 15.8 °F 86% 30.37 in 10.0 mi North 9.2 mph - N/A   Clear
7:15 AM 21.2 °F 10.9 °F 17.6 °F 86% 30.37 in 10.0 mi North 9.2 mph - N/A   Clear
7:35 AM 23.0 °F 13.1 °F 17.6 °F 80% 30.38 in 10.0 mi North 9.2 mph - N/A   Clear
7:55 AM 24.8 °F 16.1 °F 19.4 °F 80% 30.38 in 10.0 mi North 8.1 mph - N/A   Clear
8:15 AM 26.6 °F 18.2 °F 23.0 °F 86% 30.38 in 10.0 mi North 8.1 mph - N/A   Clear
8:35 AM 32.0 °F 27.5 °F 23.0 °F 69% 30.38 in 10.0 mi North 4.6 mph - N/A   Clear
8:55 AM 33.8 °F - 24.8 °F 70% 30.38 in 10.0 mi Calm Calm - N/A   Clear
9:15 AM 35.6 °F - 23.0 °F 60% 30.39 in 10.0 mi Calm Calm - N/A   Clear
9:35 AM 37.4 °F - 23.0 °F 56% 30.38 in 10.0 mi Calm Calm - N/A   Clear
9:55 AM 37.4 °F - 21.2 °F 52% 30.38 in 10.0 mi Calm Calm - N/A   Clear
10:15 AM 39.2 °F - 19.4 °F 45% 30.39 in 10.0 mi Calm Calm - N/A   Clear
10:35 AM 39.2 °F 37.0 °F 19.4 °F 45% 30.39 in 10.0 mi South 3.5 mph - N/A   Clear
10:55 AM 39.2 °F 37.0 °F 19.4 °F 45% 30.38 in 10.0 mi SE 3.5 mph - N/A   Clear
11:15 AM 41.0 °F 36.4 °F 19.4 °F 42% 30.37 in 10.0 mi SE 6.9 mph - N/A   Clear
11:35 AM 42.8 °F 37.5 °F 19.4 °F 39% 30.36 in 10.0 mi South 9.2 mph - N/A   Clear
11:55 AM 42.8 °F 37.5 °F 17.6 °F 36% 30.34 in 10.0 mi SE 9.2 mph - N/A   Clear
12:15 PM 44.6 °F 40.7 °F 19.4 °F 37% 30.33 in 10.0 mi SSE 6.9 mph - N/A   Clear
12:35 PM 44.6 °F 43.1 °F 19.4 °F 37% 30.32 in 10.0 mi South 3.5 mph - N/A   Clear
12:55 PM 44.6 °F 40.7 °F 19.4 °F 37% 30.31 in 10.0 mi SSE 6.9 mph - N/A   Clear
1:15 PM 44.6 °F 41.4 °F 19.4 °F 37% 30.29 in 10.0 mi SSE 5.8 mph - N/A   Clear
1:35 PM 46.4 °F 42.9 °F 19.4 °F 34% 30.29 in 10.0 mi SSE 6.9 mph - N/A   Clear
1:55 PM 46.4 °F - 17.6 °F 32% 30.28 in 10.0 mi Calm Calm - N/A   Clear
2:15 PM 46.4 °F 43.5 °F 17.6 °F 32% 30.27 in 10.0 mi South 5.8 mph - N/A   Clear
2:35 PM 46.4 °F 43.5 °F 19.4 °F 34% 30.27 in 10.0 mi South 5.8 mph - N/A   Clear
2:55 PM 46.4 °F 43.5 °F 17.6 °F 32% 30.27 in 10.0 mi WSW 5.8 mph - N/A   Clear
3:15 PM 48.2 °F - 17.6 °F 30% 30.27 in 10.0 mi SSW 4.6 mph - N/A   Clear
3:35 PM 48.2 °F - 17.6 °F 30% 30.27 in 10.0 mi South 3.5 mph - N/A   Clear
3:55 PM 46.4 °F 44.3 °F 17.6 °F 32% 30.26 in 10.0 mi SSW 4.6 mph - N/A   Clear
4:15 PM 46.4 °F - 17.6 °F 32% 30.26 in 10.0 mi Calm Calm - N/A   Clear
4:35 PM 46.4 °F 45.2 °F 17.6 °F 32% 30.26 in 10.0 mi SSW 3.5 mph - N/A   Clear
4:55 PM 44.6 °F 41.4 °F 19.4 °F 37% 30.26 in 10.0 mi South 5.8 mph - N/A   Clear
5:15 PM 41.0 °F 37.1 °F 19.4 °F 42% 30.26 in 10.0 mi South 5.8 mph - N/A   Clear
5:35 PM 39.2 °F 35.0 °F 19.4 °F 45% 30.26 in 10.0 mi South 5.8 mph - N/A   Clear
5:55 PM 39.2 °F 37.0 °F 19.4 °F 45% 30.27 in 10.0 mi SSW 3.5 mph - N/A   Clear
6:15 PM 39.2 °F - 19.4 °F 45% 30.27 in 10.0 mi Calm Calm - N/A   Clear
6:35 PM 37.4 °F - 19.4 °F 48% 30.27 in 10.0 mi Calm Calm - N/A   Clear
6:55 PM 28.4 °F - 19.4 °F 69% 30.28 in 10.0 mi Calm Calm - N/A   Clear
7:15 PM 26.6 °F 22.6 °F 19.4 °F 74% 30.28 in 10.0 mi NNE 3.5 mph - N/A   Clear
7:35 PM 26.6 °F 22.6 °F 19.4 °F 74% 30.29 in 10.0 mi NNE 3.5 mph - N/A   Clear
7:55 PM 28.4 °F 21.2 °F 19.4 °F 69% 30.30 in 10.0 mi NNE 6.9 mph - N/A   Clear
8:15 PM 28.4 °F 21.2 °F 21.2 °F 74% 30.30 in 10.0 mi North 6.9 mph - N/A   Clear
8:35 PM 28.4 °F 20.4 °F 21.2 °F 74% 30.30 in 10.0 mi North 8.1 mph - N/A   Clear
8:55 PM 26.6 °F 18.2 °F 21.2 °F 80% 30.30 in 10.0 mi North 8.1 mph - N/A   Clear
9:15 PM 28.4 °F 21.2 °F 21.2 °F 74% 30.30 in 10.0 mi North 6.9 mph - N/A   Clear
9:35 PM 26.6 °F 18.2 °F 21.2 °F 80% 30.30 in 10.0 mi North 8.1 mph - N/A   Clear
9:55 PM 28.4 °F 20.4 °F 21.2 °F 74% 30.30 in 10.0 mi North 8.1 mph - N/A   Clear
10:15 PM 26.6 °F 16.8 °F 21.2 °F 80% 30.31 in 10.0 mi North 10.4 mph - N/A   Clear
10:35 PM 26.6 °F 19.1 °F 21.2 °F 80% 30.31 in 10.0 mi North 6.9 mph - N/A   Clear
10:55 PM 24.8 °F 16.1 °F 19.4 °F 80% 30.31 in 10.0 mi North 8.1 mph - N/A   Clear
11:15 PM 23.0 °F 13.9 °F 19.4 °F 86% 30.31 in 10.0 mi North 8.1 mph - N/A   Clear
11:35 PM 24.8 °F 15.3 °F 19.4 °F 80% 30.32 in 10.0 mi North 9.2 mph - N/A   Clear
11:55 PM 24.8 °F 15.3 °F 19.4 °F 80% 30.32 in 10.0 mi North 9.2 mph - N/A   Clear